FLT (TYVAK-0212) (52742 NORAD) Tracking and Keplerian Element Data

This shows tracking and keplerian element data for the satellite.

Feedback or suggestion? Click here.




ElementValue
Catalog52742
NameFLT (TYVAK-0212)
Epoch Orbit712
Epoch Day192.86609663
Epoch Year2022
RAAN307.1551
Inclination97.5179
Eccentricity0.0010017
Argument of Perigee90.7017
Mean Anonmoly269.5361
Mean Motion15.12408347
Decay Rate8.201E-05
L11 52742U 22057L 22192.86609663 .00008201 00000+0 47524-3 0 9991
L22 52742 97.5179 307.1551 0010017 90.7017 269.5361 15.12408347 7122

Live tracking and technical data element details for FLT (TYVAK-0212) (NORAD 52742). FLT (TYVAK-0212) can be tracked NOW for your location showing map with azimuth and elevation plus other details from your city location.

Track the satellite on the map from your city or location and see movement details for azimuth, elevation, latitude, longitude, range, height, and movement on the map or in text.







IsCatalogInMostPopularTable: catalog: 52742, numindb: 2
Update: records affected: 1



GetName: 52742 FLT (TYVAK-0212)

Hit Count: updated at: Sun, 14 Aug 2022 01:35:54 GMT